Location: Bacharowice
(49.9333°N, 19.5833°E)
Time: 09:13:44
(UTC+00:00)

ALOS 2 - Pass Details

Date: 11 May 2021
Orbit: 630 x 632 km, 97.9° (Epoch: 22 June)

Event Time Altitude Azimuth Distance (km) Brightness Sun altitude
Exits shadow 22:41:11 38° 248° (WSW) 973 3.3 -21.9°
Maximum altitude 22:41:36 39° 262° (W) 956 3.4 -21.9°
Drops below altitude 10° 22:45:45 10° 332° (NNW) 2,026 6.0 -21.9°
Sets 22:48:05 0° 340° (NNW) 2,939 7.2 -21.9°
